PBO Station Position Time Series. Reference Frame : NAM14
Format Version,1.1.1
4-character ID,TWIW
Station name,Windy_West
Begin Date, 2004-10-12
End Date, 2023-05-14
Release Date, 2023-06-22
Reference position, 46.2129155178 North Latitude, -122.1587327144 East Longitude, 1630.53765 meters elevation,
Date, North (mm), East (mm), Vertical (mm), North Std. Deviation (mm), East Std. Deviation (mm),              Vertical Std. Deviation (mm), Quality,
2004-10-12,0.00, 0.00, 0.00, 2.31, 1.71, 7.62, repro,
2004-10-13,-0.81, 0.14, -0.29, 2.28, 1.72, 7.62, repro,
2004-10-14,-1.20, -1.86, -2.27, 2.51, 1.83, 8.47, repro,
2004-10-15,-1.49, 0.84, 4.32, 2.34, 1.71, 7.72, repro,
2004-10-16,-3.01, 0.41, -1.91, 2.27, 1.66, 7.47, repro,
2004-10-17,4.54, 0.45, 4.00, 2.35, 1.71, 7.66, repro,
2004-10-18,-1.16, 0.79, 5.67, 2.26, 1.67, 7.49, repro,
2004-10-19,2.56, -2.73, -4.28, 2.36, 1.77, 7.91, repro,
2004-10-20,0.87, -1.59, 4.97, 2.34, 1.71, 7.62, repro,
2004-10-21,-3.65, -1.30, -12.93, 2.35, 1.68, 7.59, repro,
2004-10-22,-2.73, -0.64, 1.24, 2.34, 1.69, 7.63, repro,
2004-10-23,-3.05, -0.28, 0.45, 2.31, 1.69, 7.56, repro,
2004-10-24,-3.46, -1.61, -2.42, 2.26, 1.66, 7.46, repro,
2004-10-25,-0.59, -3.58, -4.94, 2.27, 1.67, 7.57, repro,
2004-10-26,4.00, -4.39, -9.28, 2.38, 1.74, 7.83, repro,
2004-10-27,-0.34, -3.45, -4.19, 2.37, 1.74, 7.78, repro,
2004-10-28,-3.38, -2.39, 0.39, 2.33, 1.68, 7.60, repro,
2004-10-29,-3.47, -1.16, -0.29, 2.28, 1.69, 7.61, repro,
2004-10-30,-5.26, -0.55, -0.79, 2.32, 1.75, 7.77, repro,
2004-10-31,-1.35, 0.00, -4.76, 2.29, 1.68, 7.53, repro,
2004-11-01,-5.91, -0.92, -25.24, 2.33, 1.72, 7.74, repro,
2004-11-02,0.75, 6.28, -25.24, 2.36, 1.72, 7.78, repro,
2004-11-03,-2.11, -0.80, -6.47, 2.31, 1.73, 7.68, repro,
2004-11-04,-3.54, -1.32, -2.88, 2.24, 1.67, 7.40, repro,
2004-11-05,-4.26, -2.49, -4.22, 2.34, 1.80, 7.85, repro,
2004-11-06,-4.91, -6.04, -15.29, 2.32, 1.72, 7.68, repro,
2004-11-07,-1.40, -4.77, -16.48, 2.30, 1.69, 7.57, repro,
2004-11-08,-2.76, -0.93, -4.71, 2.74, 2.02, 9.05, repro,
2004-11-09,-2.98, -2.37, -4.88, 2.38, 1.81, 7.86, repro,
2004-11-10,-0.30, -2.06, -9.73, 2.35, 1.76, 7.92, repro,
2004-11-11,-1.45, -1.98, -8.14, 2.27, 1.71, 7.53, repro,
2004-11-12,-3.12, -3.93, -14.51, 2.31, 1.72, 7.65, repro,
2004-11-13,-3.35, -1.14, -7.16, 2.37, 1.73, 7.71, repro,
2004-11-14,-2.26, -3.31, -16.33, 2.34, 1.74, 7.62, repro,
2004-11-15,6.31, 1.19, 0.40, 2.27, 1.71, 7.57, repro,
2004-11-16,-2.63, -0.43, -5.04, 2.27, 1.70, 7.56, repro,
2004-11-17,-4.67, -2.49, -19.30, 2.33, 1.73, 7.75, repro,
2004-11-18,-4.05, 0.45, -17.08, 2.28, 1.71, 7.70, repro,
2004-11-19,-4.95, -0.54, -3.30, 2.36, 1.75, 7.81, repro,
2004-11-20,0.11, -2.26, -4.75, 2.39, 1.78, 7.93, repro,
2004-11-21,-3.36, -1.34, -7.37, 2.41, 1.83, 8.20, repro,
2004-11-22,-3.49, -1.92, -14.84, 2.29, 1.73, 7.64, repro,
2004-11-23,-6.02, -3.74, -10.49, 2.30, 1.69, 7.48, repro,
2004-11-24,-6.56, 0.91, -7.99, 2.40, 1.77, 7.76, repro,
2004-11-25,-2.35, -1.87, -8.64, 2.43, 1.86, 8.19, repro,
2004-11-26,-0.69, -0.48, -2.58, 2.30, 1.74, 7.72, repro,
2004-11-27,-3.99, 0.38, 0.87, 2.27, 1.73, 7.63, repro,
2004-11-28,-4.52, -4.05, -8.30, 2.21, 1.67, 7.37, repro,
2004-11-29,-2.44, -4.33, -8.65, 2.22, 1.66, 7.33, repro,
2004-11-30,-1.89, -0.61, -5.87, 2.31, 1.71, 7.56, repro,
2004-12-01,-2.57, -2.56, -12.26, 2.35, 1.70, 7.66, repro,
2004-12-02,-2.40, -2.32, -4.26, 2.35, 1.71, 7.67, repro,
2004-12-03,-4.26, -2.87, -9.31, 2.35, 1.74, 7.80, repro,
2004-12-04,-5.34, -6.52, -2.03, 2.28, 1.71, 7.56, repro,
2004-12-05,-5.37, -6.01, -1.01, 2.21, 1.67, 7.45, repro,
2004-12-06,-2.32, -4.52, 3.01, 2.45, 1.82, 7.96, repro,
2004-12-07,-1.17, -3.32, 4.34, 2.35, 1.75, 7.81, repro,
2004-12-08,5.17, -2.10, 4.18, 2.28, 1.69, 7.53, repro,
2004-12-09,1.25, -3.00, -0.33, 2.50, 1.84, 8.27, repro,
2004-12-10,2.08, -0.04, -14.66, 2.34, 1.73, 7.71, repro,
2004-12-11,-1.90, -1.38, -18.31, 2.33, 1.72, 7.74, repro,
2004-12-12,-0.65, -5.29, -13.61, 2.41, 1.72, 7.78, repro,
2004-12-13,5.65, -4.57, -13.74, 2.34, 1.70, 7.72, repro,
2004-12-14,1.75, -1.18, -46.06, 2.41, 1.79, 7.88, repro,
2004-12-15,-1.62, -4.17, -10.14, 2.35, 1.71, 7.58, repro,
2004-12-16,-1.71, -3.19, -16.96, 2.34, 1.68, 7.62, repro,
2004-12-17,-3.32, -4.66, -18.97, 2.28, 1.69, 7.56, repro,
2004-12-18,-1.55, -2.98, -16.81, 2.26, 1.69, 7.52, repro,
2004-12-19,-2.54, -1.93, -12.30, 2.23, 1.66, 7.35, repro,
2004-12-20,-4.14, -1.05, -3.15, 2.24, 1.64, 7.24, repro,
2004-12-21,-2.47, -4.06, -10.07, 2.38, 1.74, 7.75, repro,
2004-12-22,-2.20, -5.85, -57.97, 2.38, 1.77, 8.06, repro,
2004-12-23,-3.07, -5.15, -22.90, 2.29, 1.77, 7.86, repro,
2004-12-24,-2.03, -1.81, -13.33, 2.26, 1.69, 7.52, repro,
2004-12-25,0.64, -2.28, -6.55, 2.30, 1.70, 7.41, repro,
2004-12-26,2.19, -3.24, -7.33, 2.32, 1.67, 7.42, repro,
2004-12-27,3.49, -4.02, -6.44, 2.45, 1.72, 7.62, repro,
2004-12-28,0.03, -4.44, -3.93, 2.45, 1.72, 7.77, repro,
2004-12-29,-1.92, -4.86, -8.82, 2.38, 1.70, 7.60, repro,
2004-12-30,-4.30, -4.26, -11.93, 2.43, 1.73, 7.62, repro,
2004-12-31,1.26, -7.30, -12.20, 2.55, 1.78, 7.87, repro,
2005-01-01,3.60, -6.24, -20.49, 2.36, 1.69, 7.52, repro,
2005-01-02,-0.08, -4.61, -15.04, 2.49, 1.74, 7.75, repro,
2005-01-03,1.71, -4.52, -10.39, 2.45, 1.71, 7.76, repro,
2005-01-04,0.80, -4.74, -10.95, 2.48, 1.73, 7.69, repro,
2005-01-05,-1.85, -5.47, -18.17, 2.38, 1.71, 7.59, repro,
2005-01-06,-3.26, -7.62, -21.75, 2.43, 1.76, 7.77, repro,
2005-01-07,4.01, -2.64, -5.95, 2.54, 1.86, 8.18, repro,
2005-01-08,2.41, -6.25, -17.18, 2.44, 1.80, 8.02, repro,
2005-01-09,-1.30, -5.66, -14.99, 2.30, 1.70, 7.56, repro,
2005-01-10,-4.82, -5.21, -15.57, 2.44, 1.81, 8.05, repro,
2005-01-11,-4.32, -3.43, -11.27, 2.33, 1.75, 7.68, repro,
2005-01-12,-4.25, -1.85, -6.27, 2.70, 1.98, 8.66, repro,
2005-01-13,-2.49, -1.71, -13.32, 3.07, 2.28, 10.11, repro,
2005-01-14,-3.84, -5.92, -33.11, 2.55, 1.90, 8.38, repro,
2005-01-15,-6.36, -7.28, -30.38, 2.61, 2.03, 8.68, repro,
2005-01-16,-2.84, -6.67, -32.85, 2.31, 1.78, 7.65, repro,
2005-01-17,-2.39, -5.31, -27.90, 4.48, 3.27, 13.64, repro,
2005-01-18,-1.74, 0.90, -20.58, 2.45, 1.76, 7.94, repro,
2005-01-19,-2.67, 4.74, -36.94, 2.40, 1.74, 7.78, repro,
2005-01-20,-4.06, 0.49, -32.22, 2.44, 1.77, 7.93, repro,
2005-01-21,-6.47, -5.04, -22.86, 2.35, 1.76, 7.79, repro,
2005-01-22,-9.05, -5.91, -12.63, 2.27, 1.73, 7.53, repro,
2005-01-23,-7.63, -9.29, -13.92, 2.35, 1.78, 7.83, repro,
2005-01-24,-2.60, -8.33, -30.21, 2.29, 1.71, 7.55, repro,
2005-01-25,-2.19, -6.40, -20.91, 2.36, 1.78, 7.82, repro,
2005-01-26,3.84, -7.89, -24.73, 2.29, 1.71, 7.56, repro,
2005-01-27,-5.91, -4.80, -28.75, 2.32, 1.76, 7.80, repro,
2005-01-28,-1.24, -3.63, -13.83, 2.30, 1.74, 7.68, repro,
2005-01-29,-5.32, -4.22, -25.74, 2.28, 1.68, 7.52, repro,
2005-01-30,-4.19, -2.36, -19.29, 2.29, 1.70, 7.54, repro,
2005-01-31,-4.28, -5.02, -17.35, 2.32, 1.72, 7.64, repro,
2005-02-01,-3.95, -2.53, -20.26, 2.25, 1.66, 7.38, repro,
2005-02-02,-2.70, -4.54, -23.00, 2.27, 1.66, 7.44, repro,
2005-02-03,-2.07, -3.91, -21.18, 2.35, 1.67, 7.61, repro,
2005-02-04,-2.26, -1.98, -26.06, 2.41, 1.72, 7.84, repro,
2005-02-05,-2.17, -3.09, -22.67, 2.35, 1.70, 7.58, repro,
2005-02-06,-3.27, -6.33, -19.76, 2.27, 1.68, 7.53, repro,
2005-02-07,-1.51, -5.55, -17.92, 2.25, 1.64, 7.32, repro,
2005-02-08,-1.77, -5.21, -20.07, 2.32, 1.69, 7.65, repro,
2005-02-09,-1.35, -4.05, -11.34, 3.14, 2.16, 9.57, repro,
2005-02-10,-4.69, -7.48, -24.87, 5.79, 3.66, 15.38, repro,
2005-02-11,-2.62, -7.25, -21.13, 3.63, 3.32, 13.96, repro,
2005-02-12,-8.24, -3.66, -19.23, 3.11, 2.28, 9.80, repro,
2005-02-13,-3.57, -3.49, -6.16, 2.25, 1.65, 7.43, repro,
2005-02-14,-3.73, -5.50, -11.45, 2.27, 1.64, 7.44, repro,
2005-02-15,-3.34, -6.81, -18.54, 2.26, 1.63, 7.42, repro,
2005-02-16,-2.20, -6.17, -22.14, 2.27, 1.63, 7.39, repro,
2005-02-17,-2.43, -5.34, -16.53, 2.36, 1.68, 7.55, repro,
2005-02-18,-2.23, -5.44, -18.62, 2.29, 1.65, 7.50, repro,
2005-02-19,-3.18, -4.76, -10.77, 2.34, 1.66, 7.52, repro,
2005-02-20,-1.26, -6.52, -14.08, 2.30, 1.65, 7.43, repro,
2005-02-21,-1.69, -6.02, -16.13, 2.45, 1.78, 8.07, repro,
2005-02-22,-3.78, -5.58, -18.44, 2.26, 1.64, 7.37, repro,
2005-02-23,-2.39, -6.03, -17.10, 2.36, 1.66, 7.55, repro,
2005-02-24,-1.53, -5.08, -14.80, 2.38, 1.68, 7.67, repro,
2005-02-25,-2.93, -5.48, -15.23, 2.33, 1.65, 7.45, repro,
2005-02-26,-4.23, -5.44, -15.74, 2.39, 1.72, 7.72, repro,
2005-02-27,1.17, -8.95, -25.43, 2.38, 1.72, 7.68, repro,
2005-02-28,1.42, -7.33, -17.91, 2.39, 1.70, 7.73, repro,
2005-03-01,-7.12, -4.90, -16.75, 2.46, 1.70, 7.86, repro,
2005-03-02,-1.70, -4.54, -24.28, 2.38, 1.69, 7.67, repro,
2005-03-03,-2.12, -6.09, -16.82, 2.38, 1.67, 7.53, repro,
2005-03-04,-4.93, -6.42, -17.25, 2.32, 1.65, 7.44, repro,
2005-03-05,-4.83, -6.96, -18.81, 2.36, 1.66, 7.51, repro,
2005-03-06,-4.97, -4.09, -15.46, 2.35, 1.68, 7.62, repro,
2005-03-07,-4.41, -3.02, -8.12, 2.35, 1.66, 7.53, repro,
2005-03-08,-3.10, -3.03, -13.94, 2.41, 1.71, 7.65, repro,
2005-03-09,-3.24, -3.71, -25.20, 2.39, 1.71, 7.61, repro,
2005-03-10,-3.18, -3.59, -13.17, 2.34, 1.65, 7.44, repro,
2005-03-11,-4.43, -5.04, -13.07, 2.40, 1.69, 7.64, repro,
2005-03-12,-1.16, -2.71, -6.85, 2.35, 1.66, 7.47, repro,
2005-03-13,-1.59, -2.78, -14.65, 2.33, 1.66, 7.44, repro,
2005-03-14,-3.24, -3.89, -21.13, 2.47, 1.74, 7.91, repro,
2005-03-15,-4.65, -4.43, -14.99, 2.43, 1.70, 7.73, repro,
2005-03-16,-4.40, -3.60, -22.09, 2.39, 1.69, 7.62, repro,
2005-03-17,-1.79, -3.34, -9.84, 2.40, 1.70, 7.64, repro,
2005-03-18,-0.77, -2.57, -3.83, 2.40, 1.70, 7.66, repro,
2005-03-19,-0.51, -1.58, -21.30, 2.34, 1.67, 7.46, repro,
2005-03-20,5.54, -3.13, -11.17, 2.40, 1.67, 7.64, repro,
2005-03-21,-1.04, -3.74, -19.05, 2.37, 1.66, 7.52, repro,
2005-03-22,0.82, -4.54, -15.60, 2.32, 1.65, 7.44, repro,
2005-03-23,-1.49, -3.80, -8.73, 2.32, 1.65, 7.43, repro,
2005-03-24,-0.76, -4.15, -12.24, 2.33, 1.67, 7.47, repro,
2005-03-25,-4.11, -5.28, -16.85, 2.36, 1.66, 7.46, repro,
2005-03-26,-1.10, -3.76, -18.13, 2.36, 1.67, 7.51, repro,
2005-03-27,3.76, -2.67, -25.69, 2.71, 1.86, 8.89, repro,
2005-03-28,-4.76, -0.89, -0.06, 2.53, 1.82, 8.02, repro,
2005-03-29,-3.69, -2.47, -11.35, 2.41, 1.73, 7.74, repro,
2005-03-30,-5.99, -2.61, -14.26, 2.46, 1.77, 7.99, repro,
2005-03-31,-6.42, -4.13, -12.58, 2.44, 1.72, 7.81, repro,
2005-04-01,0.23, -3.08, -22.35, 2.40, 1.67, 7.62, repro,
2005-04-02,-4.86, -3.69, -19.19, 2.39, 1.68, 7.61, repro,
2005-04-03,-0.60, -7.12, -12.02, 2.43, 1.70, 7.85, repro,
2005-04-04,-3.80, -5.38, -12.63, 2.53, 1.77, 8.10, repro,
2005-04-05,-5.66, -5.81, -17.47, 2.42, 1.72, 7.74, repro,
2005-04-06,0.13, -4.14, -15.49, 2.41, 1.68, 7.69, repro,
2005-04-07,-2.95, -3.96, -10.22, 2.40, 1.68, 7.68, repro,
2005-04-08,-3.88, -4.98, -5.76, 2.39, 1.68, 7.62, repro,
2005-04-09,-4.50, -4.59, -11.17, 2.40, 1.69, 7.67, repro,
2005-04-10,-3.91, -4.95, -16.98, 2.41, 1.68, 7.64, repro,
2005-04-11,-0.54, -4.43, -13.84, 2.44, 1.68, 7.78, repro,
2005-04-12,-2.64, -3.78, -14.73, 2.40, 1.67, 7.64, repro,
2005-04-13,-10.06, -7.30, -19.79, 2.57, 1.78, 8.17, repro,
2005-04-14,-2.37, -5.64, -18.18, 2.54, 1.74, 7.78, repro,
2005-04-15,-5.45, -4.52, -18.28, 2.45, 1.69, 7.67, repro,
2005-04-16,2.28, -1.11, -21.51, 2.38, 1.69, 7.61, repro,
2005-04-17,-5.18, -5.51, -13.76, 2.37, 1.67, 7.52, repro,
2005-04-18,-4.79, -4.74, -15.59, 2.39, 1.67, 7.52, repro,
2005-04-19,-5.08, -4.24, -10.12, 2.50, 1.76, 7.93, repro,
2005-04-20,-4.33, -3.48, -16.98, 2.53, 1.75, 8.09, repro,
2005-04-21,-3.00, -5.35, -19.70, 2.43, 1.69, 7.85, repro,
2005-04-22,-1.52, -3.81, -17.93, 2.38, 1.67, 7.57, repro,
2005-04-23,-0.65, -4.84, -10.92, 2.39, 1.69, 7.62, repro,
2005-04-24,-4.43, -5.27, -16.30, 2.42, 1.70, 7.80, repro,
2005-04-25,-5.59, -3.74, -22.08, 2.41, 1.69, 7.62, repro,
2005-04-26,-3.26, -5.55, -20.48, 2.60, 1.84, 8.44, repro,
2005-04-27,-4.08, -5.33, -20.00, 2.39, 1.69, 7.70, repro,
2005-04-28,-1.69, -4.02, -21.57, 2.44, 1.73, 7.78, repro,
2005-04-29,-3.12, -5.45, -25.05, 2.53, 1.79, 7.95, repro,
2005-04-30,-5.20, -5.05, -21.04, 2.57, 1.84, 8.29, repro,
2005-05-08,-5.61, -5.12, -19.89, 2.35, 1.67, 7.53, repro,
2005-05-09,-4.72, -5.55, -21.59, 2.55, 1.81, 8.21, repro,
2005-05-10,-8.90, -3.32, -20.74, 2.42, 1.68, 7.69, repro,
2005-05-11,-4.17, -5.15, -18.58, 2.41, 1.70, 7.75, repro,
2005-05-12,-3.90, -4.59, -15.87, 2.40, 1.72, 7.79, repro,
2005-05-13,-5.26, -6.76, -26.71, 2.61, 1.91, 8.54, repro,
2005-05-14,-8.20, -6.88, -21.94, 2.43, 1.75, 7.88, repro,
2005-05-15,-8.63, -6.26, -13.96, 2.50, 1.76, 8.02, repro,
2005-05-16,-4.19, -4.68, -25.38, 2.45, 1.76, 7.86, repro,
2005-05-17,-2.89, -5.51, -24.72, 2.88, 2.13, 9.33, repro,
2005-05-18,2.60, -0.39, -8.26, 2.60, 1.92, 8.59, repro,
2005-05-19,-1.59, -0.33, -41.53, 2.48, 1.74, 8.01, repro,
2005-05-20,-1.28, -4.81, -24.74, 2.37, 1.69, 7.67, repro,
2005-05-21,-7.47, -7.10, -23.51, 2.35, 1.69, 7.59, repro,
2005-05-22,-0.92, -1.78, -24.47, 2.43, 1.76, 7.88, repro,
2005-05-23,-5.49, -5.36, -25.80, 2.39, 1.73, 7.77, repro,
2005-05-24,-5.40, -4.95, -25.18, 2.53, 1.80, 8.09, repro,
2005-05-25,-1.14, -6.33, -23.56, 2.49, 1.76, 7.98, repro,
2005-05-26,-2.90, -6.90, -25.10, 2.38, 1.69, 7.68, repro,
2005-05-27,-3.77, -5.23, -17.98, 2.35, 1.71, 7.69, repro,
2005-05-28,-1.47, -5.70, -19.29, 2.41, 1.75, 7.79, repro,
2005-05-29,-4.90, -5.14, -13.26, 2.38, 1.72, 7.75, repro,
2005-05-30,-6.25, -4.81, -17.86, 2.39, 1.71, 7.75, repro,
2005-05-31,-5.77, -7.54, -21.90, 2.38, 1.71, 7.70, repro,
2005-06-01,-7.31, -5.13, -14.04, 2.46, 1.73, 7.86, repro,
2005-06-02,-6.16, -4.83, -17.21, 2.39, 1.71, 7.72, repro,
2005-06-03,-6.03, -4.26, -17.85, 2.33, 1.65, 7.45, repro,
2005-06-04,-6.32, -4.06, -13.90, 2.47, 1.77, 8.05, repro,
2005-06-05,-4.27, -4.17, -15.83, 2.43, 1.71, 7.74, repro,
2005-06-06,-7.00, -8.56, -19.23, 2.38, 1.65, 7.51, repro,
2005-06-07,-6.09, -4.24, -6.23, 2.48, 1.76, 7.89, repro,
2005-06-08,-6.34, -4.79, -18.43, 2.37, 1.71, 7.58, repro,
2005-06-09,-5.60, -5.25, -15.25, 2.42, 1.70, 7.75, repro,
2005-06-10,-5.88, -5.45, -13.83, 2.41, 1.71, 7.78, repro,
2005-06-11,-5.22, -5.77, -17.78, 2.42, 1.71, 7.79, repro,
2005-06-12,-3.93, -4.00, -31.37, 2.42, 1.73, 7.78, repro,
2005-06-13,-5.26, -6.36, -28.78, 2.40, 1.73, 7.82, repro,
2005-06-14,-6.48, -4.09, -21.40, 2.43, 1.69, 7.72, repro,
2005-06-15,-4.85, -4.22, -13.30, 2.36, 1.66, 7.53, repro,
2005-06-16,-4.37, -5.93, -11.15, 2.45, 1.68, 7.62, repro,
2005-06-17,-8.10, -4.65, -18.61, 2.52, 1.73, 7.78, repro,
2005-06-18,-6.22, -4.45, -20.92, 2.33, 1.65, 7.46, repro,
2005-06-19,-6.70, -4.61, -19.01, 2.32, 1.66, 7.49, repro,
2005-06-20,-5.61, -5.77, -19.48, 2.36, 1.67, 7.56, repro,
2005-06-21,-7.61, -5.12, -14.79, 2.41, 1.71, 7.78, repro,
2005-06-22,-7.55, -6.16, -26.77, 2.37, 1.65, 7.54, repro,
2005-06-23,-7.83, -4.53, -21.34, 2.35, 1.65, 7.44, repro,
2005-06-24,-5.71, -5.73, -16.92, 2.34, 1.65, 7.47, repro,
2005-06-25,-7.62, -3.38, -10.98, 2.33, 1.66, 7.46, repro,
2005-06-26,-5.86, -3.87, -16.39, 2.38, 1.66, 7.56, repro,
2005-06-27,-7.07, -5.62, -22.61, 2.37, 1.64, 7.52, repro,
2005-06-28,-6.79, -4.72, -15.62, 2.35, 1.65, 7.43, repro,
2005-06-29,-7.94, -3.99, -13.75, 2.32, 1.65, 7.43, repro,
2005-06-30,-5.28, -4.07, -9.05, 2.31, 1.66, 7.48, repro,
2005-07-01,-7.34, -3.92, -4.93, 2.35, 1.65, 7.50, repro,
2005-07-02,-7.26, -3.05, -13.91, 2.39, 1.66, 7.56, repro,
2005-07-03,-8.66, -4.97, -14.58, 2.45, 1.69, 7.78, repro,
2005-07-04,-5.99, -4.02, -13.23, 2.34, 1.66, 7.43, repro,
2005-07-05,-5.24, -3.26, -15.66, 2.33, 1.65, 7.44, repro,
2005-07-06,-6.02, -5.11, -11.82, 2.36, 1.68, 7.61, repro,
2005-07-07,-5.85, -3.49, -8.13, 2.44, 1.70, 7.68, repro,
2005-07-08,-8.48, -3.43, -4.98, 2.37, 1.66, 7.54, repro,
2005-07-09,-12.20, -7.19, -16.55, 2.35, 1.66, 7.47, repro,
2005-07-10,-8.34, -6.65, -11.19, 2.41, 1.71, 7.68, repro,
2005-07-11,-13.11, -4.69, -18.62, 2.38, 1.68, 7.57, repro,
2005-07-12,-10.51, -4.60, -11.33, 2.36, 1.67, 7.54, repro,
2005-07-13,-8.15, -2.31, -16.55, 2.36, 1.66, 7.53, repro,
2005-07-14,-5.61, -4.33, -13.35, 2.35, 1.68, 7.58, repro,
2005-07-15,-7.74, -4.05, -12.69, 2.33, 1.65, 7.42, repro,
2005-07-16,-7.54, 2.47, -11.65, 2.36, 1.67, 7.55, repro,
2005-07-17,-3.60, -3.49, -14.50, 2.35, 1.66, 7.58, repro,
2005-07-18,-4.37, -3.38, -10.40, 2.38, 1.67, 7.58, repro,
2005-07-19,-7.46, -4.52, -11.95, 2.40, 1.71, 7.74, repro,
2005-07-20,-7.20, -4.38, -21.45, 2.33, 1.66, 7.46, repro,
2005-07-21,-7.22, -4.35, -17.93, 2.33, 1.66, 7.44, repro,
2005-07-22,-6.70, -4.91, -7.53, 2.44, 1.72, 7.91, repro,
2005-07-23,-4.93, -4.26, -11.75, 2.37, 1.67, 7.62, repro,
2005-07-24,-5.88, -4.25, -15.74, 2.38, 1.70, 7.69, repro,
2005-07-25,-4.99, -4.33, -21.16, 2.36, 1.69, 7.70, repro,
2005-07-26,-7.31, -3.50, -12.24, 2.39, 1.74, 7.83, repro,
2005-07-27,-6.52, -2.30, -13.66, 2.41, 1.77, 7.80, repro,
2005-07-28,-7.13, -0.88, -4.69, 2.53, 1.83, 8.23, repro,
2005-07-29,-5.18, -3.23, -14.26, 2.38, 1.68, 7.75, repro,
2005-07-30,-1.28, -3.28, -6.16, 2.39, 1.67, 7.68, repro,
2005-07-31,-4.28, -1.35, -4.51, 2.39, 1.69, 7.71, repro,
2005-08-01,-4.06, -3.66, -7.90, 2.47, 1.74, 7.96, repro,
2005-08-02,-9.18, -2.47, -6.36, 2.38, 1.69, 7.63, repro,
2005-08-03,-4.76, -4.58, -12.95, 2.36, 1.66, 7.55, repro,
2005-08-04,-5.74, -2.95, -15.71, 2.37, 1.66, 7.54, repro,
2005-08-05,-4.42, -2.09, -15.99, 2.35, 1.67, 7.51, repro,
2005-08-06,-4.21, -2.43, -5.80, 2.36, 1.67, 7.51, repro,
2005-08-07,-6.35, -3.44, -11.17, 2.35, 1.66, 7.44, repro,
2005-08-08,-6.78, -2.47, -8.44, 2.34, 1.66, 7.46, repro,
2005-08-09,-5.50, -4.48, -14.14, 2.37, 1.66, 7.54, repro,
2005-08-10,-5.40, -2.56, -16.99, 2.36, 1.67, 7.58, repro,
2005-08-11,-5.36, -2.23, -5.76, 2.42, 1.73, 7.76, repro,
2005-08-12,-5.37, -3.33, -8.00, 2.41, 1.73, 7.76, repro,
2005-08-13,-4.05, -3.75, -13.52, 2.33, 1.66, 7.49, repro,
2005-08-14,-5.53, -1.39, -11.91, 2.38, 1.69, 7.59, repro,
2005-08-15,-3.95, -0.96, -4.22, 2.43, 1.70, 7.75, repro,
2005-08-16,-6.54, 0.21, -1.27, 2.43, 1.74, 7.84, repro,
2005-08-17,-5.41, -0.01, -3.83, 2.46, 1.71, 7.80, repro,
2005-08-18,-5.42, -2.70, -6.79, 2.39, 1.70, 7.63, repro,
2005-08-19,-6.84, -3.69, -5.04, 2.32, 1.64, 7.45, repro,
2005-08-20,-7.75, -0.30, -5.64, 2.44, 1.77, 7.90, repro,
2005-08-21,-3.47, -1.81, 3.53, 2.35, 1.67, 7.60, repro,
2005-08-22,-5.82, -3.10, -8.37, 2.50, 1.76, 8.10, repro,
2005-08-23,-6.36, -3.06, -4.20, 2.39, 1.69, 7.68, repro,
2005-08-24,-3.56, -2.49, -5.70, 2.32, 1.64, 7.44, repro,
2005-08-25,-4.21, -4.34, -11.32, 2.32, 1.64, 7.45, repro,
2005-08-26,-6.15, -2.90, -9.07, 2.42, 1.72, 7.82, repro,
2005-08-27,-1.58, -4.19, -7.99, 2.39, 1.68, 7.70, repro,
2005-08-28,-6.04, -4.37, 0.15, 2.33, 1.64, 7.50, repro,
2005-08-29,-5.30, -2.29, -5.17, 2.33, 1.65, 7.44, repro,
2005-08-30,-7.12, -3.58, -11.42, 2.32, 1.64, 7.43, repro,
2005-08-31,-6.14, -3.02, -5.42, 2.43, 1.74, 7.78, repro,
2005-09-01,-5.48, -2.40, -7.54, 2.35, 1.67, 7.57, repro,
2005-09-02,-7.14, -2.49, -5.50, 2.34, 1.66, 7.55, repro,
2005-09-03,-3.82, -3.65, -15.46, 2.36, 1.65, 7.52, repro,
2005-09-04,-0.47, -5.79, -3.44, 2.31, 1.64, 7.37, repro,
2005-09-05,-2.90, -2.96, -9.50, 2.37, 1.71, 7.61, repro,
2005-09-06,-4.86, -4.07, -10.55, 2.35, 1.66, 7.55, repro,
2005-09-07,-4.71, -3.54, -9.99, 2.44, 1.68, 7.68, repro,
2005-09-08,-4.29, -2.80, -9.10, 2.41, 1.67, 7.62, repro,
2005-09-09,-7.67, -2.62, -11.35, 2.40, 1.67, 7.55, repro,
2005-09-10,-4.55, -3.26, -5.68, 2.40, 1.67, 7.54, repro,
2005-09-11,-4.27, -2.04, -5.94, 2.48, 1.73, 7.75, repro,
2005-09-12,-4.67, -3.04, -11.09, 2.52, 1.74, 7.99, repro,
2005-09-13,-3.84, -3.18, -4.77, 2.54, 1.78, 8.04, repro,
2005-09-14,-3.29, -5.19, -9.84, 2.41, 1.71, 7.66, repro,
2005-09-15,-4.50, -3.21, -8.26, 2.45, 1.73, 7.75, repro,
2005-09-16,-4.31, -4.99, -11.42, 2.50, 1.77, 7.85, repro,
2005-09-17,-5.39, -3.56, -5.91, 2.33, 1.65, 7.51, repro,
2005-09-18,-4.59, -4.32, -7.01, 2.38, 1.71, 7.82, repro,
2005-09-19,-0.47, -5.47, -5.11, 2.49, 1.77, 8.12, repro,
2005-09-20,-4.58, -4.60, -8.12, 2.31, 1.66, 7.48, repro,
2005-09-21,-4.09, -3.94, -5.70, 2.48, 1.81, 8.23, repro,
2005-09-22,-3.08, -3.27, -10.29, 2.35, 1.65, 7.56, repro,
2005-09-23,-5.31, -4.59, -11.12, 2.38, 1.70, 7.78, repro,
2005-09-24,-5.07, -5.22, -3.56, 2.39, 1.72, 7.76, repro,
2005-09-25,-4.71, -4.54, -1.53, 2.36, 1.70, 7.64, repro,
2005-09-26,-5.35, -3.74, -2.06, 2.42, 1.76, 7.88, repro,
2005-09-27,-4.36, -4.11, -0.94, 2.43, 1.73, 7.89, repro,
2005-09-28,-4.50, -3.27, 5.32, 2.44, 1.68, 7.67, repro,
2005-09-29,-5.31, 1.65, 1.20, 2.41, 1.67, 7.59, repro,
2005-09-30,-4.86, -0.67, -2.26, 2.35, 1.66, 7.60, repro,
2005-10-01,-5.67, -1.19, -4.74, 2.36, 1.69, 7.68, repro,
2005-10-02,-8.38, -6.99, -11.31, 2.39, 1.70, 7.69, repro,
2005-10-03,-3.17, -2.33, -2.12, 2.39, 1.70, 7.67, repro,
2005-10-04,-4.51, -3.23, -6.80, 2.42, 1.69, 7.72, repro,
2005-10-05,-4.96, -4.35, -22.55, 2.63, 1.91, 8.62, repro,
2005-10-06,-8.42, -7.46, -11.77, 2.32, 1.64, 7.43, repro,
2005-10-07,-8.51, -1.74, -5.29, 2.36, 1.65, 7.57, repro,
2005-10-08,-4.72, -4.82, 0.12, 2.34, 1.64, 7.48, repro,
2005-10-09,-6.95, -4.22, -0.87, 2.37, 1.65, 7.52, repro,
2005-10-10,-6.91, -4.02, -7.13, 2.39, 1.71, 7.69, repro,
2005-10-11,-4.24, -1.33, -9.57, 2.35, 1.71, 7.70, repro,
2005-10-12,-4.94, -4.21, 1.74, 2.38, 1.70, 7.68, repro,
2005-10-13,-5.13, -3.38, 1.70, 2.46, 1.76, 8.07, repro,
2005-10-14,-0.18, -3.29, 4.96, 2.37, 1.67, 7.64, repro,
2005-10-15,-0.17, -3.54, -8.98, 2.36, 1.65, 7.51, repro,
2005-10-16,-7.08, -3.31, -6.23, 2.35, 1.66, 7.56, repro,
2005-10-17,-8.44, -2.65, 2.20, 2.34, 1.66, 7.56, repro,
2005-10-18,-3.55, -4.57, -1.73, 2.47, 1.84, 8.26, repro,
2005-10-19,-6.56, -6.96, -3.82, 2.39, 1.70, 7.69, repro,
2005-10-20,-6.71, -6.66, -5.21, 2.46, 1.70, 7.76, repro,
2005-10-21,-4.24, -3.39, -3.93, 2.35, 1.66, 7.51, repro,
2005-10-22,-6.00, -7.46, -11.53, 2.33, 1.64, 7.48, repro,
2005-10-23,-2.52, -6.53, -1.60, 2.41, 1.71, 7.72, repro,
2005-10-24,-3.12, -5.32, -11.92, 2.37, 1.66, 7.63, repro,
2005-10-25,3.61, -3.46, 10.55, 2.49, 1.73, 7.81, repro,
2005-10-26,-5.24, -4.34, -17.90, 2.45, 1.78, 7.91, repro,
2005-10-27,-2.98, -4.65, 0.04, 2.35, 1.66, 7.52, repro,
2005-10-28,-3.61, -5.11, -15.18, 2.32, 1.64, 7.44, repro,
2005-10-29,-10.22, -6.09, -9.91, 2.41, 1.75, 7.92, repro,
2005-10-30,-5.61, -4.97, -11.27, 2.42, 1.74, 7.91, repro,
2005-10-31,-6.37, -2.90, -8.86, 2.46, 1.77, 7.91, repro,
2005-11-01,-8.81, -2.19, -30.41, 2.60, 1.88, 8.36, repro,
2005-11-02,-5.98, -4.12, -8.33, 2.44, 1.78, 7.86, repro,
2005-11-03,-1.63, -5.54, -9.10, 2.45, 1.74, 7.83, repro,
2005-11-04,-4.23, -0.34, -1.13, 2.49, 1.82, 8.09, repro,
2005-11-05,-2.37, -2.79, -6.17, 2.44, 1.79, 7.87, repro,
2005-11-06,-1.72, -1.95, -13.38, 2.56, 1.92, 8.30, repro,
2005-11-07,-5.65, -5.08, -15.17, 2.44, 1.81, 7.88, repro,
2005-11-08,-4.66, -4.48, -9.44, 2.50, 1.82, 8.05, repro,
2005-11-09,-4.46, -5.27, -12.50, 2.52, 1.86, 8.26, repro,
2005-11-10,-3.80, -5.09, -14.30, 2.76, 1.96, 9.01, repro,
2005-11-11,-2.03, -2.84, -3.53, 2.49, 1.86, 8.27, repro,
2005-11-12,-5.55, -3.53, -8.22, 2.36, 1.73, 7.61, repro,
2005-11-13,-3.91, -5.89, -24.35, 2.42, 1.78, 7.88, repro,
2005-11-14,-7.27, -5.09, -15.73, 2.44, 1.75, 7.86, repro,
2005-11-15,-6.00, -3.09, -12.10, 2.42, 1.70, 7.93, repro,
2005-11-16,-3.90, -3.62, -19.89, 2.46, 1.72, 7.90, repro,
2005-11-17,-6.26, -5.22, -20.66, 2.34, 1.65, 7.59, repro,
2005-11-18,-6.02, -3.91, -15.54, 2.41, 1.70, 7.74, repro,
2005-11-19,-2.93, -5.19, -16.58, 2.34, 1.65, 7.53, repro,
2005-11-20,-5.03, -5.32, -16.38, 2.36, 1.66, 7.62, repro,
2005-11-21,-3.12, -6.05, -17.59, 2.47, 1.74, 8.14, repro,
2005-11-22,-5.70, -4.23, -12.12, 2.51, 1.85, 8.51, repro,
2005-11-23,-4.91, -4.13, -5.08, 2.37, 1.71, 7.72, repro,
2005-11-24,-5.89, -7.74, -13.70, 2.51, 1.79, 8.16, repro,
2005-11-25,-8.94, -7.94, -10.62, 2.38, 1.69, 7.69, repro,
2005-11-26,-4.68, -3.47, -2.04, 2.42, 1.72, 7.94, repro,
2005-11-27,-5.81, -6.09, -16.58, 2.35, 1.67, 7.63, repro,
2005-11-28,-4.36, -6.80, -9.01, 2.38, 1.70, 7.75, repro,
2005-11-29,-3.21, -5.50, -10.70, 2.92, 1.99, 9.20, repro,
2005-11-30,-2.56, -5.33, -16.48, 2.40, 1.70, 7.83, repro,
2005-12-01,-0.93, -8.23, -7.43, 2.43, 1.73, 7.90, repro,